#timestamp,LO_Frequency,Hit,StdDev 
1649016015.6,286046997.5,N
1649016035.4,286047000.0,N
1649016055.3,286047003.8,N
1649016075.1,286047004.7,N
1649016095.9,286047003.0,N
1649016115.7,286047004.0,N
1649016135.5,286047003.5,N
1649016155.4,286047003.5,N
1649016175.2,286047003.1,N
1649016195.0,286047002.4,N
1649016195.9,286047002.4,N
1649016215.8,286046999.0,N
1649016235.6,286046996.5,N
1649016255.5,286046999.5,N
1649016275.3,286046996.7,N
1649016295.1,286047001.0,N
1649016315.9,286046996.7,N
1649016335.7,286046993.5,N
1649016355.5,286046996.0,N
1649016375.4,286046994.3,N
1649016395.2,286046993.7,N
1649016415.1,286046994.7,N
1649016416.0,286046994.7,N
1649016435.8,286046996.1,N
1649016455.6,286046995.2,N
1649016475.5,286046995.8,N
1649016495.3,286046994.8,N
1649016515.1,286046991.9,N
1649016535.9,286046993.6,N
1649016555.7,286046996.9,N
1649016575.6,286046998.2,N
1649016595.4,286046999.2,N
1649016615.2,286047002.2,N
1649016635.1,286047001.4,N
1649016636.0,286047001.4,N
1649016655.8,286047000.0,N
1649016675.6,286047001.1,N
1649016695.5,286046995.5,N
1649016745.4,286046996.2,E
1649016755.3,286046996.4,N
1649016775.1,286046996.9,P
1649016795.9,286047001.4,P
1649016815.7,286047000.5,N
1649016835.5,286046997.8,N
1649016855.4,286046996.6,N
1649016875.2,286047001.1,N
1649016895.0,286046999.1,N
1649016895.9,286046999.1,N
1649016915.8,286046999.5,N
1649016935.6,286046999.8,N
1649016955.5,286047002.1,N
1649016975.3,286047007.6,Y
1649016995.1,286047007.0,P
1649017015.9,286047005.2,N
1649017035.7,286047001.8,N
1649017055.5,286047002.5,N
1649017075.4,286046998.4,N
1649017095.2,286047001.4,N
1649017115.1,286047003.6,N
1649017116.0,286047003.6,N
1649017135.8,286047006.0,N
1649017155.6,286047004.4,N
1649017175.5,286047001.7,N
1649017195.3,286047002.0,N
1649017215.1,286047001.8,N
1649017235.9,286047000.9,N
1649017255.7,286047002.1,N
1649017275.6,286047004.4,N
1649017295.4,286047005.1,N
1649017315.2,286047007.6,Y
1649017335.1,286047004.2,P
1649017336.0,286047004.2,P
1649017355.8,286047005.0,P
1649017375.7,286047004.8,Y
1649017395.5,286046997.0,P
1649017415.3,286046997.1,N
1649017435.2,286046996.6,N
1649017455.9,286046995.6,N
1649017475.7,286046994.0,N
1649017495.6,286046993.4,N
1649017515.4,286046993.9,N
1649017535.2,286046997.6,N
1649017555.1,286047002.8,N
1649017556.0,286047002.8,N
1649017575.8,286047000.6,N
1649017595.7,286047000.1,N
1649017615.5,286046999.4,N
1649017635.3,286046999.2,N
1649017655.2,286046996.7,N
1649017675.0,286046997.3,N
1649017675.9,286046997.3,N
1649017695.8,286046996.7,N
1649017715.6,286047001.1,N
1649017735.4,286046999.1,N
1649017755.3,286046998.9,N
1649017775.1,286046998.5,N
1649017776.0,286046998.5,N
1649017795.8,286047001.3,N
1649017815.7,286047002.8,N
1649017835.5,286047002.4,N
1649017855.3,286047000.8,N
1649017875.2,286047000.3,N
1649017895.0,286047000.4,N
1649017895.9,286047000.4,N
1649017915.8,286047002.1,N
1649017935.6,286047000.7,N
1649017955.4,286047001.1,N
1649017975.3,286046997.7,N
1649017995.1,286046996.9,N
1649018015.9,286046998.7,N
1649018035.7,286047000.0,N
1649018055.5,286047001.4,N
1649018075.4,286047000.5,N
1649018095.2,286046998.6,N
1649018115.0,286047000.0,N
1649018115.9,286047000.0,N
1649018135.8,286047003.1,N
1649018155.6,286047001.7,N
1649018175.5,286046998.9,N
1649018195.3,286046997.6,N
1649018215.1,286046995.4,N
1649018235.9,286046998.0,N
1649018255.7,286046995.2,N
1649018275.5,286046997.4,N
1649018295.4,286046996.9,N
1649018315.2,286046998.0,N
1649018335.1,286046993.0,Y
1649018336.0,286046993.0,P
1649018355.8,286046992.6,N
1649018375.6,286046995.8,N
1649018395.5,286046999.2,N
1649018415.3,286047002.7,N
1649018435.1,286047001.3,N
1649018455.9,286047005.9,N
1649018475.7,286047005.4,N
1649018495.6,286047004.0,N
1649018515.4,286047002.1,N
1649018535.2,286047002.8,N
1649018555.1,286046998.7,N
1649018556.0,286046998.7,N
1649018575.8,286047000.2,N
1649018595.7,286046999.8,N
1649018615.5,286047002.5,N
1649018635.3,286047003.2,N
1649018655.2,286047005.9,N
1649018675.9,286047004.2,N
1649018695.7,286047003.1,N
1649018715.6,286047003.2,N
1649018735.4,286047007.1,N
1649018755.2,286047005.5,N
1649018775.1,286047004.3,N
1649018776.0,286047004.3,N
1649018795.8,286047006.0,N
1649018815.7,286047004.8,N
1649018835.5,286047003.9,N
1649018855.3,286047000.5,N
1649018875.2,286047002.6,N
1649018895.0,286047000.2,N
1649018895.9,286047000.2,N
1649018915.8,286047002.9,N
1649018935.6,286047003.2,N
1649018955.4,286047000.3,N
1649018975.3,286047001.4,N
1649018995.1,286046999.9,N
1649019015.8,286047001.0,N
1649019035.7,286047003.5,N
1649019055.5,286047001.3,N
1649019075.3,286047000.1,N
1649019095.2,286047002.4,N
1649019115.0,286047002.0,N
1649019115.9,286047002.0,N
1649019135.8,286047003.2,N
1649019155.6,286047003.3,N
1649019175.4,286047004.8,N
1649019195.3,286047007.4,Y
1649019215.1,286047003.0,P
1649019235.9,286047005.0,P
1649019255.7,286047003.3,P
1649019275.5,286047004.3,Y
1649019295.4,286046997.5,P
1649019315.2,286046995.3,N
1649019335.0,286046993.7,N
1649019335.9,286046993.7,N
1649019355.8,286046994.1,N
1649019375.6,286046994.5,N
1649019395.5,286046994.8,N
1649019415.3,286046996.7,N
1649019435.1,286046996.4,N
1649019455.9,286046991.9,N
1649019475.7,286046996.1,N
1649019495.5,286046994.7,N
1649019515.4,286046995.7,N
1649019535.2,286046995.5,N
1649019555.1,286046996.4,N
1649019556.0,286046996.4,N
1649019575.8,286046993.1,N
1649019595.6,286046990.3,Y
